Regional Weather Roundup
Issued by NWS

Home | Current Version | Previous Version | Text Only | Print | Product List | Glossary Off
Versions: 1 2 3 4 5 6 7 8 9 10 11 12 13 14 15 16 17 18 19 20 21 22 23 24 25 26 27 28 29 30 31 32 33 34 35 36 37 38 39 40 41 42 43 44 45 46 47 48 49 50

000
ASUS45 KPSR 051600
RWRAZ

ARIZONA REGIONAL HOURLY WEATHER ROUNDUP
NATIONAL WEATHER SERVICE PHOENIX AZ
900 AM MST TUE MAY 05 2015

NOTE: FAIR INDICATES FEW OR NO CLOUDS BELOW 12,000 FEET WITH NO
SIGNIFICANT WEATHER AND/OR OBSTRUCTIONS TO VISIBILITY.

AZZ001>003-036-051700-
NORTHWEST ARIZONA

CITY           SKY/WX    TMP DP  RH WIND       PRES   REMARKS
KINGMAN        CLOUDY    60  51  72 SE8       29.94S
$$

AZZ004>008-015-016-018-051700-
NORTH CENTRAL ARIZONA

CITY           SKY/WX    TMP DP  RH WIND       PRES   REMARKS
GRAND CANYON   CLOUDY    47  43  86 VRB6      30.01R
WILLIAMS       DRIZZLE   45  43  93 W7        30.08S
PRESCOTT       PTSUNNY   54  43  66 W8        30.00R
FLAGSTAFF      NOT AVBL
PAYSON         CLOUDY    52  48  87 VRB7      30.03R
PAGE           PTSUNNY   61  49  64 CALM      29.89S
$$

AZZ009>014-017-051700-
NORTHEAST ARIZONA

CITY           SKY/WX    TMP DP  RH WIND       PRES   REMARKS
WINSLOW        NOT AVBL
SAINT JOHNS    CLOUDY    54  42  64 SW18      29.98S
WINDOW ROCK    CLOUDY    48  40  73 SW9       29.99S
SHOW LOW       LGT RAIN  43  41  93 S12       30.04R
$$

AZZ023-051700-
GREATER PHOENIX AREA

CITY           SKY/WX    TMP DP  RH WIND       PRES   REMARKS
PHOENIX        MOSUNNY   72  54  53 VRB5      29.90R
GLENDALE       MOSUNNY   72  52  49 CALM      29.92R
DEER VALLEY    SUNNY     69  52  54 SE6       29.90S
SCOTTSDALE     MOSUNNY   68  54  60 VRB6      29.93R
MESA-FALCON    PTSUNNY   70  50  49 SE9       29.91S
CHANDLER       PTSUNNY   70  54  56 SE7       29.91S
$$

AZZ027-028-051700-
SOUTHWEST MARICOPA COUNTY AND PINAL COUNTY

CITY           SKY/WX    TMP DP  RH WIND       PRES   REMARKS
CASA GRANDE    MOSUNNY   66  54  63 CALM      29.92R
$$

AZZ503-504-507>509-051700-
SOUTHEAST ARIZONA

CITY           SKY/WX    TMP DP  RH WIND       PRES   REMARKS
TUCSON         SUNNY     68  49  50 CALM      29.97F
RYAN FIELD       N/A     66  54  63 CALM      29.97S
NOGALES        MOSUNNY   65  45  48 SW8       30.00S
SAFFORD        CLOUDY    65  47  52 CALM      29.97R
$$

AZZ020-021-025-026-031-051700-
SOUTHWEST ARIZONA

CITY           SKY/WX    TMP DP  RH WIND       PRES   REMARKS
YUMA           MOSUNNY   73  57  57 S5        29.88S
$$

CAZ031-033-041-043-047-048-061-051700-
SOUTHERN CALIFORNIA

CITY           SKY/WX    TMP DP  RH WIND       PRES   REMARKS
DOWNTOWN L.A.  CLOUDY    61  48  62 VRB5      29.99S
L.A. AIRPORT   CLOUDY    60  49  66 SE5       30.00S
SAN DIEGO      CLOUDY    62  47  57 W5        30.01S
BURBANK        CLOUDY    59  48  67 S6        29.99S
ONTARIO        CLOUDY    59  49  69 SW6       29.99S
RIVERSIDE      CLOUDY    59  49  69 W3        30.00S
PALM SPRINGS   SUNNY     72  45  37 NW6       29.88S
EL CENTRO NAS  MOSUNNY   75  40  28 W9        29.87F
IMPERIAL       SUNNY     74  42  31 W9        29.85F
BLYTHE         SUNNY     70  59  68 S12       29.86S
$$

NVZ020-UTZ003-051700-
SOUTHERN NEVADA-UTAH

CITY           SKY/WX    TMP DP  RH WIND       PRES   REMARKS
LAS VEGAS      NOT AVBL
SALT LAKE CITY CLOUDY    62  47  57 N7        29.86S
$$

NMZ009-TXZ055-051700-
NEW MEXICO-WEST TEXAS

CITY           SKY/WX    TMP DP  RH WIND       PRES   REMARKS
ALBUQUERQUE    MOSUNNY   57  42  57 SW12      29.96R
EL PASO        MOSUNNY   68  39  34 SW13G22   29.97S
$$


........................KEY........................
SKY/WX - SKY CONDITION/WEATHER
TMP    - TEMPERATURE IN FAHRENHEIT
DP     - DEW POINT IN FAHRENHEIT
RH     - RELATIVE HUMIDITY IN PERCENT
WIND   - DIRECTION AND SPEED IN MILES PER HOUR (MPH)
VRB    - VARIABLE WIND DIRECTION
PRES   - MEAN SEA LEVEL PRESSURE IN INCHES OF MERCURY
         F - FALLING PRESSURE   R - RISING PRESSURE
         S - STEADY PRESSURE
VSB    - VISIBILITY IN MILES
HX     - HEAT INDEX IN FAHRENHEIT
WCI    - WIND CHILL INDEX IN FAHRENHEIT
TC     - TEMPERATURE IN CELSIUS WHICH IS ALSO KNOWN AS
         TEMPERATURE IN CENTIGRADE
AFB    - AIR FORCE BASE
         LUKE AFB IS LUKE AIR FORCE BASE
         DAVIS-MONTHAN IS DAVIS-MONTHAN AIR FORCE BASE
NAS    - NAVAL AIR STATION
         EL CENTRO NAS IS EL CENTRO NAVAL AIR STATION
N/A    - NOT AVAILABLE



USA.gov is the U.S. government's official web portal to all federal, state and local government web resources and services.